| time (UTC) | temp F | wind direction | speed knots | gust knots | rain 1hr in | rain 24hr in | rain mn in | humidity % | barometer mb |
| 20260504192208 | 67 | 202 | 3.5 | 6.1 | 0.00 | 0.00 | 0.00 | 41 | 1008.5 |
| 20260504191706 | 69 | 324 | 5.2 | 7.0 | 0.00 | 0.00 | 0.00 | 40 | 1008.6 |
| 20260504191202 | 69 | 285 | 1.7 | 1.7 | 0.00 | 0.00 | 0.00 | 38 | 1008.5 |
| 20260504190658 | 68 | 147 | 1.7 | 2.6 | 0.00 | 0.00 | 0.00 | 41 | 1008.5 |
| 20260504190154 | 68 | 161 | 1.7 | 1.7 | 0.00 | 0.00 | 0.00 | 40 | 1008.6 |
| 20260504185651 | 69 | 200 | 1.7 | 1.7 | 0.00 | 0.00 | 0.00 | 38 | 1008.4 |
| 20260504185147 | 68 | 224 | 4.3 | 5.2 | 0.00 | 0.00 | 0.00 | 39 | 1008.6 |
| 20260504184644 | 68 | 225 | 0.0 | 0.9 | 0.00 | 0.00 | 0.00 | 38 | 1008.8 |
| 20260504184139 | 69 | 199 | 2.6 | 2.6 | 0.00 | 0.00 | 0.00 | 37 | 1008.9 |
| 20260504183637 | 67 | 195 | 3.5 | 3.5 | 0.00 | 0.00 | 0.00 | 40 | 1008.8 |
| 20260504183134 | 69 | 175 | 4.3 | 7.0 | 0.00 | 0.00 | 0.00 | 38 | 1008.6 |
| 20260504182631 | 69 | 211 | 1.7 | 3.5 | 0.00 | 0.00 | 0.00 | 38 | 1008.9 |
| 20260504182128 | 68 | 215 | 0.9 | 1.7 | 0.00 | 0.00 | 0.00 | 37 | 1008.7 |
| 20260504181626 | 68 | 242 | 4.3 | 5.2 | 0.00 | 0.00 | 0.00 | 39 | 1008.9 |
| 20260504181123 | 67 | 23 | 2.6 | 5.2 | 0.00 | 0.00 | 0.00 | 38 | 1009.1 |
| 20260504180622 | 69 | 206 | 3.5 | 5.2 | 0.00 | 0.00 | 0.00 | 39 | 1009.3 |
| 20260504180121 | 68 | 177 | 3.5 | 3.5 | 0.00 | 0.00 | 0.00 | 38 | 1009.3 |
| 20260504175617 | 68 | 149 | 4.3 | 6.1 | 0.00 | 0.00 | 0.00 | 40 | 1009.3 |
| 20260504175114 | 68 | 113 | 3.5 | 5.2 | 0.00 | 0.00 | 0.00 | 40 | 1009.1 |
| 20260504174612 | 68 | 197 | 3.5 | 6.1 | 0.00 | 0.00 | 0.00 | 43 | 1009.1 |
| 20260504174108 | 68 | 219 | 3.5 | 3.5 | 0.00 | 0.00 | 0.00 | 41 | 1009.3 |
| 20260504173605 | 67 | 312 | 2.6 | 3.5 | 0.00 | 0.00 | 0.00 | 41 | 1009.5 |
| 20260504173103 | 68 | 292 | 2.6 | 2.6 | 0.00 | 0.00 | 0.00 | 42 | 1009.5 |
| 20260504172559 | 66 | 119 | 5.2 | 6.1 | 0.00 | 0.00 | 0.00 | 42 | 1009.4 |
| 20260504172056 | 65 | 151 | 5.2 | 6.1 | 0.00 | 0.00 | 0.00 | 43 | 1009.4 |
| 20260504171552 | 66 | 252 | 3.5 | 6.1 | 0.00 | 0.00 | 0.00 | 42 | 1009.5 |
| 20260504171049 | 65 | 208 | 2.6 | 3.5 | 0.00 | 0.00 | 0.00 | 43 | 1009.5 |
| 20260504170545 | 65 | 267 | 1.7 | 2.6 | 0.00 | 0.00 | 0.00 | 44 | 1009.6 |
| 20260504150929 | 59 | 227 | 2.6 | 2.6 | 0.00 | 0.00 | 0.00 | 49 | 1010.5 |
| 20260504150426 | 60 | 203 | 1.7 | 2.6 | 0.00 | 0.00 | 0.00 | 48 | 1010.5 |
| 20260504140852 | 55 | 194 | 0.9 | 1.7 | 0.00 | 0.00 | 0.00 | 52 | 1010.8 |
| 20260504140348 | 55 | 197 | 1.7 | 3.5 | 0.00 | 0.00 | 0.00 | 53 | 1010.9 |
| 20260504130817 | 50 | 180 | 0.9 | 1.7 | 0.00 | 0.00 | 0.00 | 58 | 1010.9 |
| 20260504130313 | 49 | 179 | 1.7 | 1.7 | 0.00 | 0.00 | 0.00 | 57 | 1011.1 |
| 20260504120237 | 46 | 209 | 1.7 | 1.7 | 0.00 | 0.00 | 0.00 | 59 | 1011.2 |
| 20260504110704 | 43 | 201 | 0.9 | 0.9 | 0.00 | 0.00 | 0.00 | 63 | 1010.9 |
| 20260504110201 | 43 | 160 | 1.7 | 1.7 | 0.00 | 0.00 | 0.00 | 65 | 1011.0 |
| 20260504100125 | 41 | 167 | 0.9 | 0.9 | 0.00 | 0.00 | 0.00 | 66 | 1011.3 |
| 20260504081518 | 42 | 209 | 0.9 | 0.9 | 0.00 | 0.00 | 0.00 | 65 | 1011.5 |
| 20260504081013 | 41 | 208 | 0.0 | 0.0 | 0.00 | 0.00 | 0.00 | 65 | 1011.5 |
| 20260504080510 | 41 | 209 | 0.9 | 0.9 | 0.00 | 0.00 | 0.00 | 65 | 1011.4 |
| 20260504050328 | 42 | 189 | 0.9 | 0.9 | 0.00 | 0.00 | 0.00 | 61 | 1012.7 |
| 20260504045825 | 42 | 193 | 0.0 | 0.9 | 0.00 | 0.00 | 0.00 | 61 | 1012.8 |
| 20260504045320 | 42 | 179 | 0.0 | 0.9 | 0.00 | 0.00 | 0.00 | 60 | 1012.7 |
| 20260504044817 | 43 | 196 | 0.0 | 0.9 | 0.00 | 0.00 | 0.00 | 60 | 1012.8 |
| 20260504044315 | 42 | 189 | 0.9 | 0.9 | 0.00 | 0.00 | 0.00 | 61 | 1012.6 |
| 20260504043812 | 42 | 212 | 0.0 | 0.9 | 0.00 | 0.00 | 0.00 | 60 | 1012.7 |
| 20260504043309 | 43 | 203 | 0.9 | 0.9 | 0.00 | 0.00 | 0.00 | 60 | 1012.8 |
| 20260504042807 | 43 | 211 | 0.9 | 0.9 | 0.00 | 0.00 | 0.00 | 60 | 1012.7 |
| 20260504042304 | 43 | 224 | 0.9 | 1.7 | 0.00 | 0.00 | 0.00 | 59 | 1012.7 |
| 20260504041759 | 43 | 212 | 0.0 | 0.0 | 0.00 | 0.00 | 0.00 | 60 | 1012.7 |
| 20260504041255 | 43 | 212 | 0.9 | 0.9 | 0.00 | 0.00 | 0.00 | 59 | 1012.5 |
| 20260504040751 | 43 | 209 | 0.0 | 0.9 | 0.00 | 0.00 | 0.00 | 59 | 1012.7 |
| 20260504040249 | 43 | 200 | 0.0 | 0.0 | 0.00 | 0.00 | 0.00 | 60 | 1012.9 |
| 20260504035745 | 43 | 211 | 0.0 | 0.0 | 0.00 | 0.00 | 0.00 | 59 | 1012.7 |
| 20260504035242 | 43 | 221 | 0.9 | 0.9 | 0.00 | 0.00 | 0.00 | 59 | 1012.7 |
| 20260504034740 | 43 | 257 | 1.7 | 2.6 | 0.00 | 0.00 | 0.00 | 59 | 1012.7 |
| 20260504034237 | 43 | 209 | 0.0 | 0.9 | 0.00 | 0.00 | 0.00 | 59 | 1012.7 |
| 20260504033735 | 43 | 199 | 0.0 | 0.9 | 0.00 | 0.00 | 0.00 | 59 | 1012.8 |
| 20260504033232 | 44 | 221 | 2.6 | 2.6 | 0.00 | 0.00 | 0.00 | 58 | 1012.7 |
| 20260504032729 | 44 | 232 | 0.9 | 1.7 | 0.00 | 0.00 | 0.00 | 58 | 1012.7 |
| 20260504032226 | 44 | 230 | 0.9 | 1.7 | 0.00 | 0.00 | 0.00 | 57 | 1012.6 |
| 20260504031722 | 44 | 219 | 0.9 | 0.9 | 0.00 | 0.00 | 0.00 | 58 | 1012.8 |
| 20260504031220 | 44 | 219 | 0.9 | 0.9 | 0.00 | 0.00 | 0.00 | 58 | 1012.7 |
| 20260504030715 | 45 | 198 | 0.9 | 1.7 | 0.00 | 0.00 | 0.00 | 57 | 1012.6 |
| 20260504030213 | 44 | 227 | 1.7 | 2.6 | 0.00 | 0.00 | 0.00 | 58 | 1012.8 |
| 20260504025709 | 44 | 228 | 0.9 | 0.9 | 0.00 | 0.00 | 0.00 | 59 | 1012.7 |
| 20260504025206 | 44 | 214 | 0.9 | 1.7 | 0.00 | 0.00 | 0.00 | 59 | 1012.7 |
| 20260504024704 | 44 | 208 | 0.0 | 0.9 | 0.00 | 0.00 | 0.00 | 58 | 1012.8 |
| 20260504024200 | 44 | 203 | 0.9 | 0.9 | 0.00 | 0.00 | 0.00 | 58 | 1012.7 |
| 20260504023656 | 45 | 215 | 0.0 | 0.9 | 0.00 | 0.00 | 0.00 | 56 | 1012.8 |
| 20260504023152 | 44 | 216 | 1.7 | 1.7 | 0.00 | 0.00 | 0.00 | 58 | 1012.7 |
| 20260504022649 | 44 | 194 | 0.9 | 1.7 | 0.00 | 0.00 | 0.00 | 57 | 1012.9 |
| 20260504022144 | 44 | 203 | 0.9 | 1.7 | 0.00 | 0.00 | 0.00 | 57 | 1012.8 |
| 20260504021643 | 44 | 201 | 1.7 | 1.7 | 0.00 | 0.00 | 0.00 | 57 | 1012.9 |
| 20260504021139 | 45 | 174 | 0.0 | 1.7 | 0.00 | 0.00 | 0.00 | 58 | 1013.0 |
| 20260504020637 | 45 | 220 | 1.7 | 1.7 | 0.00 | 0.00 | 0.00 | 55 | 1012.9 |
| 20260504020132 | 45 | 205 | 0.9 | 0.9 | 0.00 | 0.00 | 0.00 | 57 | 1012.9 |
| 20260504015629 | 44 | 237 | 0.9 | 0.9 | 0.00 | 0.00 | 0.00 | 57 | 1012.8 |
| 20260504015125 | 44 | 231 | 0.9 | 0.9 | 0.00 | 0.00 | 0.00 | 56 | 1012.7 |
| 20260504014621 | 45 | 215 | 0.9 | 1.7 | 0.00 | 0.00 | 0.00 | 57 | 1012.8 |
| 20260504014119 | 45 | 207 | 0.0 | 0.0 | 0.00 | 0.00 | 0.00 | 56 | 1012.7 |
| 20260504013616 | 45 | 219 | 0.9 | 1.7 | 0.00 | 0.00 | 0.00 | 56 | 1012.8 |
| 20260504013113 | 45 | 211 | 0.0 | 0.0 | 0.00 | 0.00 | 0.00 | 56 | 1012.7 |
| 20260504012610 | 45 | 211 | 0.0 | 0.9 | 0.00 | 0.00 | 0.00 | 55 | 1012.5 |
| 20260504012108 | 45 | 210 | 0.9 | 0.9 | 0.00 | 0.00 | 0.00 | 56 | 1012.5 |
| 20260504011605 | 45 | 208 | 0.9 | 0.9 | 0.00 | 0.00 | 0.00 | 54 | 1012.6 |
| 20260504011101 | 45 | 182 | 0.9 | 0.9 | 0.00 | 0.00 | 0.00 | 55 | 1012.4 |
| 20260504010556 | 45 | 186 | 1.7 | 1.7 | 0.00 | 0.00 | 0.00 | 53 | 1012.4 |
| 20260504010053 | 46 | 206 | 0.9 | 1.7 | 0.00 | 0.00 | 0.00 | 53 | 1012.7 |
| 20260504005550 | 45 | 213 | 0.0 | 0.9 | 0.00 | 0.00 | 0.00 | 53 | 1012.6 |
| 20260504005047 | 46 | 201 | 0.9 | 0.9 | 0.00 | 0.00 | 0.00 | 53 | 1012.5 |
| 20260504004545 | 46 | 208 | 0.9 | 0.9 | 0.00 | 0.00 | 0.00 | 52 | 1012.4 |
| 20260504004042 | 46 | 188 | 0.9 | 1.7 | 0.00 | 0.00 | 0.00 | 51 | 1012.1 |
| 20260504003538 | 47 | 218 | 0.9 | 0.9 | 0.00 | 0.00 | 0.00 | 51 | 1012.5 |
| 20260504003035 | 47 | 231 | 1.7 | 1.7 | 0.00 | 0.00 | 0.00 | 50 | 1012.5 |
| 20260504002531 | 47 | 222 | 0.9 | 0.9 | 0.00 | 0.00 | 0.00 | 51 | 1012.4 |
| 20260504002029 | 47 | 209 | 0.0 | 0.9 | 0.00 | 0.00 | 0.00 | 51 | 1012.4 |
| 20260504001527 | 47 | 199 | 0.9 | 1.7 | 0.00 | 0.00 | 0.00 | 50 | 1012.3 |
| 20260504001022 | 47 | 217 | 0.9 | 0.9 | 0.00 | 0.00 | 0.00 | 50 | 1012.5 |
| 20260504000520 | 48 | 210 | 0.9 | 0.9 | 0.00 | 0.00 | 0.00 | 50 | 1012.4 |
| 20260504000017 | 48 | 250 | 0.9 | 0.9 | 0.00 | 0.00 | 0.00 | 49 | 1012.1 |
| 20260503235515 | 48 | 216 | 0.9 | 1.7 | 0.00 | 0.00 | 0.00 | 48 | 1012.3 |
| 20260503235011 | 49 | 215 | 0.9 | 0.9 | 0.00 | 0.00 | 0.00 | 48 | 1012.3 |
| 20260503234509 | 49 | 236 | 1.7 | 2.6 | 0.00 | 0.00 | 0.00 | 47 | 1012.0 |
| 20260503234007 | 49 | 255 | 3.5 | 5.2 | 0.00 | 0.00 | 0.00 | 47 | 1012.4 |
| 20260503233503 | 49 | 203 | 0.9 | 0.9 | 0.00 | 0.00 | 0.00 | 49 | 1012.5 |
| 20260503232959 | 49 | 205 | 1.7 | 1.7 | 0.00 | 0.00 | 0.00 | 47 | 1012.5 |
| 20260503232456 | 50 | 179 | 1.7 | 2.6 | 0.00 | 0.00 | 0.00 | 46 | 1012.4 |
| 20260503231954 | 50 | 207 | 1.7 | 1.7 | 0.00 | 0.00 | 0.00 | 46 | 1012.5 |
| 20260503231451 | 50 | 330 | 1.7 | 1.7 | 0.00 | 0.00 | 0.00 | 47 | 1012.5 |
| 20260503230948 | 50 | 194 | 0.9 | 1.7 | 0.00 | 0.00 | 0.00 | 45 | 1012.4 |
| 20260503230444 | 51 | 288 | 3.5 | 3.5 | 0.00 | 0.00 | 0.00 | 45 | 1012.1 |
| 20260503225942 | 51 | 296 | 2.6 | 5.2 | 0.00 | 0.00 | 0.00 | 45 | 1012.3 |
| 20260503225439 | 51 | 248 | 2.6 | 3.5 | 0.00 | 0.00 | 0.00 | 44 | 1012.3 |
| 20260503224934 | 51 | 246 | 0.9 | 0.9 | 0.00 | 0.00 | 0.00 | 45 | 1012.3 |
| 20260503224431 | 51 | 228 | 1.7 | 2.6 | 0.00 | 0.00 | 0.00 | 45 | 1012.3 |
| 20260503223929 | 51 | 299 | 3.5 | 3.5 | 0.00 | 0.00 | 0.00 | 44 | 1012.5 |
| 20260503223427 | 51 | 308 | 3.5 | 7.0 | 0.00 | 0.00 | 0.00 | 45 | 1012.4 |
| 20260503222922 | 51 | 211 | 1.7 | 2.6 | 0.00 | 0.00 | 0.00 | 44 | 1012.4 |
| 20260503222421 | 51 | 216 | 2.6 | 2.6 | 0.00 | 0.00 | 0.00 | 44 | 1012.5 |
| 20260503221919 | 52 | 164 | 1.7 | 1.7 | 0.00 | 0.00 | 0.00 | 43 | 1012.3 |
| 20260503221417 | 53 | 223 | 0.9 | 1.7 | 0.00 | 0.00 | 0.00 | 44 | 1012.3 |
| 20260503220913 | 53 | 244 | 2.6 | 2.6 | 0.00 | 0.00 | 0.00 | 43 | 1012.1 |
| 20260503220410 | 51 | 222 | 1.7 | 2.6 | 0.00 | 0.00 | 0.00 | 42 | 1012.4 |
| 20260503215907 | 51 | 287 | 2.6 | 3.5 | 0.00 | 0.00 | 0.00 | 43 | 1012.4 |
| 20260503215404 | 52 | 200 | 0.9 | 0.9 | 0.00 | 0.00 | 0.00 | 42 | 1012.1 |
| 20260503214901 | 53 | 222 | 1.7 | 2.6 | 0.00 | 0.00 | 0.00 | 43 | 1012.5 |
| 20260503214358 | 52 | 234 | 0.9 | 0.9 | 0.00 | 0.00 | 0.00 | 45 | 1012.3 |
| 20260503213856 | 52 | 172 | 1.7 | 2.6 | 0.00 | 0.00 | 0.00 | 43 | 1012.3 |
| 20260503213354 | 51 | 258 | 1.7 | 1.7 | 0.00 | 0.00 | 0.00 | 44 | 1012.3 |
| 20260503212850 | 52 | 181 | 1.7 | 2.6 | 0.00 | 0.00 | 0.00 | 43 | 1012.1 |
| 20260503212348 | 52 | 79 | 1.7 | 1.7 | 0.00 | 0.00 | 0.00 | 44 | 1012.3 |
| 20260503211845 | 51 | 174 | 1.7 | 1.7 | 0.00 | 0.00 | 0.00 | 46 | 1012.1 |
| 20260503211342 | 51 | 245 | 2.6 | 3.5 | 0.00 | 0.00 | 0.00 | 43 | 1011.9 |
| 20260503210837 | 51 | 113 | 3.5 | 3.5 | 0.00 | 0.00 | 0.00 | 44 | 1012.1 |
| 20260503210334 | 52 | 186 | 4.3 | 5.2 | 0.00 | 0.00 | 0.00 | 42 | 1012.1 |
| 20260503205829 | 53 | 226 | 1.7 | 2.6 | 0.00 | 0.00 | 0.00 | 41 | 1012.1 |
| 20260503205326 | 51 | 229 | 2.6 | 3.5 | 0.00 | 0.00 | 0.00 | 43 | 1012.3 |
| 20260503204822 | 53 | 318 | 3.5 | 5.2 | 0.00 | 0.00 | 0.00 | 43 | 1012.3 |
| 20260503204320 | 51 | 228 | 2.6 | 3.5 | 0.00 | 0.00 | 0.00 | 44 | 1012.3 |
| 20260503203817 | 52 | 220 | 2.6 | 2.6 | 0.00 | 0.00 | 0.00 | 42 | 1012.1 |
| 20260503203315 | 51 | 233 | 1.7 | 1.7 | 0.00 | 0.00 | 0.00 | 43 | 1012.3 |
| 20260503202811 | 50 | 277 | 2.6 | 3.5 | 0.00 | 0.00 | 0.00 | 44 | 1012.3 |
| 20260503202309 | 50 | 242 | 3.5 | 3.5 | 0.00 | 0.00 | 0.00 | 44 | 1012.5 |
| 20260503201807 | 51 | 256 | 1.7 | 1.7 | 0.00 | 0.00 | 0.00 | 45 | 1012.6 |
| 20260503201304 | 50 | 265 | 3.5 | 5.2 | 0.00 | 0.00 | 0.00 | 43 | 1012.8 |
| 20260503200801 | 51 | 213 | 3.5 | 3.5 | 0.00 | 0.00 | 0.00 | 43 | 1012.8 |
| 20260503200257 | 51 | 243 | 3.5 | 3.5 | 0.00 | 0.00 | 0.00 | 44 | 1012.8 |
| 20260503195755 | 52 | 250 | 1.7 | 2.6 | 0.00 | 0.00 | 0.00 | 44 | 1012.6 |
| 20260503195251 | 51 | 334 | 3.5 | 5.2 | 0.00 | 0.00 | 0.00 | 45 | 1012.7 |
| 20260503194749 | 52 | 95 | 1.7 | 2.6 | 0.00 | 0.00 | 0.00 | 42 | 1012.8 |
| 20260503194244 | 51 | 218 | 4.3 | 6.1 | 0.00 | 0.00 | 0.00 | 43 | 1012.8 |
| 20260503193741 | 50 | 316 | 4.3 | 6.1 | 0.00 | 0.00 | 0.00 | 44 | 1013.0 |
| 20260503193237 | 50 | 200 | 3.5 | 5.2 | 0.00 | 0.00 | 0.00 | 43 | 1012.9 |
| 20260503192733 | 51 | 224 | 4.3 | 6.1 | 0.00 | 0.00 | 0.00 | 44 | 1013.0 |